Knoxville, TN

4:44 AM EST on November 15, 2019 (GMT -0500)
McGhee Tyson

Weather History for KTYS - October, 2019

Change the Weather History Date:

Wednesday, October 16, 2019

  Actual Average Record
Temperature  
Mean Temperature 58 °F 60 °F  
Max Temperature 66 °F 71 °F 87 °F (1897)
Min Temperature 49 °F 48 °F 25 °F (1876)
Degree Days  
Heating Degree Days 8 6  
Month to date heating degree days 27 69  
Since 1 July heating degree days 27 92  
Cooling Degree Days 0 1  
Month to date cooling degree days 103 27  
Year to date cooling degree days 1965 1514  
Growing Degree Days 8 (Base 50)    
Moisture  
Dew Point 52 °F    
Average Humidity 78    
Maximum Humidity 97    
Minimum Humidity 39    
Precipitation  
Precipitation 0.55 in 0.07 in 1.98 in (1932)
Month to date precipitation 0.58 1.26  
Year to date precipitation 48.84 38.10  
Snow  
Snow - 0.00 in - ()
Month to date snowfall 0.0 0.0  
Since 1 July snowfall 0.0 0.0  
Since 1 September snowfall 0.0 0.0  
Snow Depth 0.00 in    
Sea Level Pressure  
Sea Level Pressure 29.84 in    
Wind  
Wind Speed 6 mph ()    
Max Wind Speed 21 mph    
Max Gust Speed 25 mph    
Visibility 6.4 miles    
Events Rain    
T = Trace of Precipitation, MM = Missing Value Source: Averaged Metar Reports

Daily Weather History Graph

Daily Weather History Graph

Search for Another Location

Airport or City:

Astronomy

Oct. 16, 2019 Rise Set
Actual Time 7:43 AM EDT 6:59 PM EDT
Civil Twilight 7:17 AM EDT 7:25 PM EDT
Nautical Twilight 6:47 AM EDT 7:54 PM EDT
Astronomical Twilight 6:18 AM EDT 8:24 PM EDT
Moon 8:56 PM EDT (10/16) 10:09 AM EDT (10/16)
Length of Visible Light 12h 07m
Length of Day
11h 16m
Waning Gibbous, 93% of the Moon is Illuminated
Oct 16
Waning Gibbous
Oct 21
Last Quarter
Oct 27
New
Nov 4
First Quarter
Nov 12
Full

Hourly Weather History & Observations

Time (EDT) Temp. Dew Point Humidity Pressure Visibility Wind Dir Wind Speed Gust Speed Precip Events Conditions
12:53 AM 66.0 °F 57.9 °F 75% 29.86 in 10.0 mi NNW 3.5 mph - N/A   Overcast
1:49 AM 62.6 °F 59.0 °F 88% 29.88 in 1.8 mi SW 9.2 mph - 0.01 in Rain Heavy Rain
1:53 AM 61.0 °F 59.0 °F 93% 29.86 in 1.5 mi SW 10.4 mph - 0.08 in Rain Heavy Rain
2:04 AM 60.8 °F 59.0 °F 94% 29.87 in 2.5 mi SW 6.9 mph - N/A Rain Heavy Rain
2:20 AM 61.0 °F 59.0 °F 93% 29.86 in 3.0 mi Calm Calm - 0.13 in Rain Heavy Rain
2:53 AM 61.0 °F 59.0 °F 93% 29.83 in 3.0 mi WSW 3.5 mph - 0.14 in Rain Heavy Rain
3:40 AM 61.0 °F 59.0 °F 93% 29.83 in 6.0 mi West 4.6 mph - 0.03 in Rain Light Rain
3:53 AM 61.0 °F 59.0 °F 93% 29.80 in 6.0 mi West 3.5 mph - 0.03 in Rain Light Rain
4:53 AM 61.0 °F 59.0 °F 93% 29.76 in 8.0 mi Calm Calm - 0.00 in Rain Light Rain
5:00 AM 60.1 °F 57.9 °F 93% 29.78 in 8.0 mi Calm Calm - 0.00 in Rain Light Rain
5:53 AM 60.1 °F 59.0 °F 96% 29.75 in 5.0 mi WSW 3.5 mph - 0.01 in Rain Light Rain
6:31 AM 60.1 °F 57.9 °F 93% 29.76 in 2.0 mi NW 8.1 mph - 0.10 in Rain Light Rain
6:53 AM 60.1 °F 59.0 °F 96% 29.74 in 3.0 mi West 5.8 mph - 0.21 in Rain Light Rain
7:18 AM 60.1 °F 59.0 °F 96% 29.77 in 2.0 mi West 8.1 mph - 0.02 in Rain Light Rain
7:25 AM 60.1 °F 59.0 °F 96% 29.77 in 2.0 mi West 6.9 mph - 0.02 in Rain Light Rain
7:38 AM 60.1 °F 59.0 °F 96% 29.79 in 1.5 mi WNW 9.2 mph - 0.03 in Rain Light Rain
7:53 AM 60.1 °F 59.0 °F 96% 29.75 in 2.0 mi SW 5.8 mph - 0.06 in Rain Light Rain
8:00 AM 60.1 °F 59.0 °F 96% 29.77 in 3.0 mi SSW 6.9 mph - 0.00 in   Overcast
8:19 AM 61.0 °F 59.0 °F 93% 29.76 in 3.0 mi SSW 10.4 mph - 0.00 in   Overcast
8:53 AM 61.0 °F 59.0 °F 93% 29.76 in 3.0 mi SW 9.2 mph - 0.01 in Rain Light Rain
9:53 AM 62.1 °F 59.0 °F 90% 29.79 in 7.0 mi WSW 10.4 mph - 0.01 in   Overcast
10:30 AM 60.1 °F 55.9 °F 86% 29.82 in 7.0 mi West 15.0 mph 24.2 mph N/A   Overcast
10:53 AM 57.9 °F 52.0 °F 81% 29.83 in 7.0 mi NW 15.0 mph 21.9 mph 0.00 in   Overcast
11:53 AM 55.9 °F 51.1 °F 84% 29.85 in 10.0 mi North 9.2 mph - N/A   Overcast
12:53 PM 57.9 °F 48.9 °F 72% 29.87 in 10.0 mi North 4.6 mph - N/A   Mostly Cloudy
1:33 PM 60.1 °F 46.0 °F 60% 29.89 in 10.0 mi NNW 6.9 mph - N/A   Mostly Cloudy
1:53 PM 61.0 °F 45.0 °F 56% 29.87 in 10.0 mi NNW 6.9 mph - N/A   Mostly Cloudy
2:53 PM 64.0 °F 43.0 °F 46% 29.86 in 10.0 mi West 11.5 mph 17.3 mph N/A   Mostly Cloudy
3:53 PM 63.0 °F 41.0 °F 45% 29.86 in 10.0 mi West 13.8 mph - N/A   Scattered Clouds
4:53 PM 63.0 °F 37.9 °F 40% 29.87 in 10.0 mi WSW 17.3 mph 23.0 mph N/A   Partly Cloudy
5:53 PM 62.1 °F 37.9 °F 41% 29.88 in 10.0 mi West 15.0 mph - N/A   Partly Cloudy
6:53 PM 59.0 °F 37.9 °F 46% 29.93 in 10.0 mi West 13.8 mph 20.7 mph N/A   Scattered Clouds
7:53 PM 55.9 °F 39.0 °F 53% 29.96 in 10.0 mi WNW 8.1 mph - N/A   Partly Cloudy
8:53 PM 54.0 °F 37.9 °F 55% 29.97 in 10.0 mi North 5.8 mph - N/A   Partly Cloudy
9:53 PM 53.1 °F 37.0 °F 55% 29.98 in 10.0 mi North 5.8 mph - N/A   Partly Cloudy
10:53 PM 51.1 °F 37.9 °F 61% 29.99 in 10.0 mi North 9.2 mph - N/A   Scattered Clouds
11:53 PM 50.0 °F 37.9 °F 63% 30.00 in 10.0 mi North 9.2 mph - N/A   Clear